DECAYED

OBJECT V, 47951 (Decayed)

Orbit data source: Space-Track

You're viewing an Uncataloged Satellite

Recently launched and/or uncataloged satellites may have evolving metadata. Metadata may include but not limited to: Owner, Maufacturer, Bus, Motor, and Mission.

OBJECT V, 47951 was a satellite in LEO that was launched on Mon, 22 Mar 2021 UTC via a SOYUZ-2-1A launch vehicle from the Tyuratam Missile And Space Complex (TTMTR). Unknown objects in Earth's orbit typically refer to objects detected orbiting the Earth but have not yet been identified or cataloged. These objects could be anything from previously untracked satellites, spent rocket stages, debris from satellite collisions, or even natural meteoroids temporarily captured by Earth's gravity. This object's orbit decayed before it could be identified.

Not visible in the next 10 days
Identifier
47951, 2021-022V
Orbit
Decayed
Country
Flag of TBDTBD
Related business
Flag of RUNational Research University Higher School of Economics (RU)
Manufacturer
VShE
Mission
Decayed Amateur Science
Bus & Motor
CUBESAT 3U, Unknown motor
Mass
4 kg wet, 4 kg dry
Launch date (UTC)
2021-03-22 (5 years ago)
Launch vehicle
SOYUZ-2-1A
Launch site
Tyuratam Missile And Space Complex (TTMTR)
Object type
Unknown
Shape & HBR
Box, 0.1 m
Radar Cross Section
0.035 m², Small (<0.1 m²)

Expand to show TLE details & history
Last TLE update: 6 months ago

TLE from 6 months ago
0 OBJECT V
1 47951U 21022V   25157.62701764  .07883385  25648-5  89537-3 0  9993
2 47951  97.4004  72.1904 0010275 223.9924 136.0557 16.36879307233400
Epoch: 2025-06-06T15:02Z
TLE epoch observation values (Epoch: 2025-06-06T15:02:54.324Z)
Latitude
0.00002°
Longitude
-48.81453°
Altitude
182.216 km
Speed
7.794 km/s
True Right ascension
04h 48m 45s
True Declination
0° 00' 00"
Sunlit
Object was in daylight at epoch
Visualization orbit readout
Latitude
Unknown
Longitude
Unknown
Altitude
Unknown
Speed
Unknown
Apparent Right ascension
Unknown
Apparent Declination
Unknown
Sunlit
N/A
Visualization observer readout
Local Sidereal Time
13:19:02
Azimuth
Unknown
Elevation
Unknown
Doppler factor
Unknown
Orbital elements
Apogee altitude
177.658 km
Perigee altitude
164.2 km
Semi-major axis
6,549.066 km
Eccentricity
0.00103
Inclination
97.4004°
RAAN
72.1904°
Arg. of periapsis
223.9924°
True anomaly
136.13733°
Mean anomaly
136.0557°
Eccentric anomaly
136.09652°
Mean motion
4.09519 °/min
Orbital period
87.91 mins
BSTAR
0.00089537
Loading maneuver chart data...
Computing Atmospheric mass density...
Loading historical data...
Loading historical data...
Loading historical data...
Loading historical data...
Loading historical data...
Loading historical data...
Loading historical data...

Documentation

Showing up to 5 results
|